Regional Weather Roundup
Issued by NWS Midland/Odessa, TX

Skip options and go directly to product.
Home | Oldest Version | Previous Version | Current Version | All | Graphics & Text | Save Text | Print | Product List | Glossary On

Skip product version selection by date and time.   
246
ASUS44 KMAF 201510
RWRMAF
MIDLAND AREA WEATHER ROUNDUP
NATIONAL WEATHER SERVICE MIDLAND TX
900 AM CST SAT DEC 20 2014

...IN SOUTHWEST TEXAS AND SOUTHEAST NEW MEXICO...

CITY           SKY/WX    TMP DP  RH WIND       PRES   REMARKS
ALPINE         SUNNY     42  31  65 CALM      30.21R
ANDREWS        FOG       37  37 100 SE3       30.16R VSB<1/4
ARTESIA        MOSUNNY   28  25  86 CALM      30.14S
BIG SPRING     CLOUDY    38  37  93 S6        30.21R VSB 1/2 WCI  34
CARLSBAD       PTSUNNY   32  28  85 N7        30.14S FOG     WCI  26
DRYDEN           N/A     47  45  93 S3        30.16R
FORT STOCKTON  SUNNY     45  34  65 SW5       30.15R
GUAD PASS      NOT AVBL
HOBBS          FOG       36  36 100 CALM      30.16R VSB 1
MARFA          MOSUNNY   34  27  75 CALM      30.18R
MIDLAND AIRPK  FOG       38  38 100 SE6       30.18R VSB 1/4 WCI  34
MIDLAND INTL   FOG       38  38 100 SE8       30.16R VSB 1/16WCI  32
ODESSA         FOG       39  38  96 SE8       30.16R VSB<1/4 WCI  33
PECOS          MOSUNNY   31  30  96 CALM      30.17R
PRESIDIO       FAIR      43  32  65 CALM      30.16S
SEMINOLE       FOG       37  37 100 CALM      30.18R VSB 1/2
SNYDER         CLOUDY    42  37  82 CALM      30.18S
WINK           FOG       35  34  96 CALM      30.15R VSB 1/4
$$
...OTHER STATIONS IN TEXAS...

CITY           SKY/WX    TMP DP  RH WIND       PRES   REMARKS
ABILENE        CLOUDY    45  38  76 CALM      30.21R
AMARILLO       FOG       32  32 100 S12       30.11R VSB 1/4 WCI  23
AUSTIN         CLOUDY    49  46  90 N6        30.24S FOG
BROWNSVILLE    CLOUDY    59  56  89 N13       30.16R
CORPUS CHRISTI CLOUDY    52  48  86 N13       30.21R
DALLAS FTW     DRIZZLE   44  42  93 NE5       30.24S FOG
DEL RIO        CLOUDY    51  46  83 SE10      30.20R
EL PASO        PTCLDY    32  25  75 N5        30.16R WCI  27
HOUSTON INT    CLOUDY    51  49  92 N8        30.20S
LUBBOCK        CLOUDY    37  35  92 SW7       30.15R FOG     WCI  32
SAN ANGELO     CLOUDY    42  40  92 S5        30.20S WCI  39
SAN ANTONIO    CLOUDY    50  43  77 NE8       30.23R
WACO           CLOUDY    48  44  86 N9        30.24R
WICHITA FALLS  NOT AVBL
$$
...OTHER LOCATIONS IN NEW MEXICO...

CITY           SKY/WX    TMP DP  RH WIND       PRES   REMARKS
ALAMAGORDO     CLEAR     25  23  93 SE5       30.16R WCI  19
ALBUQUERQUE    MOCLDY    29  23  78 CALM      30.18R
CANNON AFB     MOSUNNY   24  23  94 SW3       30.08S
CLOVIS         PTSUNNY   23  19  86 CALM      30.09S
HOLLOMAN AFB   CLEAR     29  25  84 NW6       30.14R WCI  23
ROSWELL        SUNNY     29  20  69 CALM      30.12S
RUIDOSO        CLEAR     32  18  55 W3        30.12R
SANTA FE       PTCLDY    24  15  68 N10       30.12R WCI  14
TRUTH OR CONSE PTCLDY    31  22  69 NW5       30.16R WCI  26
TUCUMCARI      FOG       26  23  88 NW3       30.08S VSB 1/4
$$

USA.gov is the U.S. government's official web portal to all federal, state and local government web resources and services.